(13) Egeria
ephemeris date magn radius delta ra dec elong phase
Today26 Jul 202612.12.631 AU2.503 AU13h42m-13°13'85.8°22.6°
Opposition1 Aug 202711.12.792 AU1.842 AU21h23m-42°11'154.5°9.0°
(13) Egeria - 2026-07-26
astro.vanbuitenen.nl


 
-1 year
-1 month
-1 day
Now
+1 day
+1 month
+1 year

The interactive orbit chart above shows the body's path through the solar system and its position at the given date. Green and blue lines are shown perpendicular to the ecliptic plane: Green if the path is above the ecliptic plane, blue if it is below. (Left-click and drag to rotate the view; Right-click and drag to move the view; Use scroll wheel to zoom in our out.)

The orbital elements of Egeria are:

            e (Eccentricity)                : 0.0846050
            a (Semimajor axis)              : 2.5763636
            i (Inclination)                 : 16.52511
            Ω (Longitude of ascending node) : 43.17726
            ω (Argument of perihelion)      : 79.11880
            M (Mean anomaly)                : 88.61668
            Epoch                           : 2026 Jun 09

            L (Longitude of perihelion)     : 121.83915
            B (Latitude of perihelion)      : 16.21972
            P (Orbital period in years)     : 4.14            
        

The light curve chart below shows the estimated development of the minor planet's magnitude.


The all-sky chart below shows the path of the minor planet over the same period as the light curve. The current position is marked yellow.





The following chart shows the path of the minor planet in the next few days. The field of view is optimized for (~10x50) binoculars and finderscopes.




Ephemerides:
Date       Time       RA (2000)    DEC (2000)    delta   radius  elong  phase   PA    magn
2026-07-26 00:00 UT   13 42 08.1   -13 13 46     2.503    2.631   85.8   22.6   111   12.1 
2026-07-26 01:47 UT   13 42 12.0   -13 14 23     2.504    2.631   85.7   22.6   111   12.1 
2026-07-27 00:00 UT   13 43 01.1   -13 22 12     2.517    2.632   85.1   22.6   111   12.1 
2026-07-28 00:00 UT   13 43 54.9   -13 30 41     2.531    2.633   84.4   22.6   111   12.1 
2026-07-29 00:00 UT   13 44 49.7   -13 39 11     2.544    2.634   83.7   22.5   111   12.1 
2026-07-30 00:00 UT   13 45 45.2   -13 47 42     2.558    2.634   83.0   22.5   111   12.1 
2026-07-31 00:00 UT   13 46 41.7   -13 56 16     2.572    2.635   82.3   22.4   111   12.2 
2026-08-01 00:00 UT   13 47 38.9   -14 04 50     2.586    2.636   81.6   22.4   111   12.2 
2026-08-02 00:00 UT   13 48 37.0   -14 13 26     2.599    2.637   80.9   22.3   111   12.2 
2026-08-03 00:00 UT   13 49 35.9   -14 22 03     2.613    2.638   80.2   22.3   111   12.2 
2026-08-04 00:00 UT   13 50 35.6   -14 30 42     2.627    2.639   79.6   22.2   111   12.2 
2026-08-05 00:00 UT   13 51 36.1   -14 39 21     2.640    2.640   78.9   22.2   111   12.2 
2026-08-06 00:00 UT   13 52 37.4   -14 48 02     2.654    2.640   78.2   22.1   111   12.2 
2026-08-07 00:00 UT   13 53 39.4   -14 56 44     2.667    2.641   77.5   22.0   111   12.2 
2026-08-08 00:00 UT   13 54 42.3   -15 05 27     2.681    2.642   76.9   21.9   111   12.2 
2026-08-09 00:00 UT   13 55 45.9   -15 14 11     2.694    2.643   76.2   21.9   111   12.2 
2026-08-10 00:00 UT   13 56 50.2   -15 22 56     2.708    2.644   75.5   21.8   111   12.3 
2026-08-11 00:00 UT   13 57 55.3   -15 31 42     2.721    2.645   74.9   21.7   111   12.3 
2026-08-12 00:00 UT   13 59 01.2   -15 40 29     2.735    2.645   74.2   21.6   111   12.3 
2026-08-13 00:00 UT   14 00 07.8   -15 49 17     2.748    2.646   73.6   21.5   111   12.3 
2026-08-14 00:00 UT   14 01 15.1   -15 58 05     2.761    2.647   72.9   21.5   111   12.3 
2026-08-15 00:00 UT   14 02 23.1   -16 06 54     2.775    2.648   72.3   21.4   111   12.3 
2026-08-16 00:00 UT   14 03 31.8   -16 15 43     2.788    2.649   71.6   21.3   111   12.3 
2026-08-17 00:00 UT   14 04 41.2   -16 24 33     2.801    2.650   71.0   21.2   111   12.3 
2026-08-18 00:00 UT   14 05 51.3   -16 33 24     2.814    2.650   70.3   21.1   111   12.3 
2026-08-19 00:00 UT   14 07 02.0   -16 42 15     2.827    2.651   69.7   21.0   111   12.3 
2026-08-20 00:00 UT   14 08 13.5   -16 51 06     2.840    2.652   69.0   20.9   111   12.3 
2026-08-21 00:00 UT   14 09 25.6   -16 59 57     2.853    2.653   68.4   20.8   111   12.3 
2026-08-22 00:00 UT   14 10 38.3   -17 08 49     2.866    2.654   67.8   20.7   111   12.3 
2026-08-23 00:00 UT   14 11 51.6   -17 17 41     2.879    2.655   67.1   20.5   111   12.4 


    Terminology:
            
    delta:  distance between minor planet and earth in AU
    radius: distance between minor planet and sun in AU
    magn:   magnitude (brightness) estimate    
    ra:     right ascension in hours (24h = 360deg)
    dec:    declination in degrees
    elong:  elongation in degrees (angle sun-earth-minor planet)    
    phase:  phase angle in degrees (angle sun-minor planet-earth)        
    AU:     Astronomical Unit (mean distance between earth and sun: 149597870.7 km
    

Orbital elements provided by the MPC (Minor Planet Center).
Calculations by a modified version of AAPlus, a C# implementation of the AA+ project by PJ Naughter from the algorithms presented in the book "Astronomical Algorithms" by Jean Meeus.
NGC2000 dso catalog and star labels from VizieR as provided by the Strasbourg astronomical Data Center.
Tycho2 catalog from the ESO archive.